カタログに戻る

SL-8 R/B

運用中PO
NORAD 27466·ROCKET BODY·🇷🇺 Russia

打ち上げ Jul 8, 2002 から Plesetsk Cosmodrome

Loading…

次のパス (今後24時間)

TLE

最新Source: Space-Track

元期: Sep 14, 2026, 01:44 UTC

1 27466U 02036C   26257.07252390  .00000100  00000-0  62980-3 0  9995
2 27466  82.4813 292.2555 0045035  80.0301 308.0295 12.44382698 98643

AllMySatでSL-8 R/Bをリアルタイム追跡

Download on the App Store